Find Starlink 32246

NORAD ID: 60432 Int'l Des: 2024-144 Owner: SPXS Country: US Constellation: starlink operational
LEOCIRCULAR

Live-Position

3D-Globus wird geladen...

Über Starlink 32246

Beschreibung wird geladen...

Nächste Überflüge

Passes for default location (London). Set your location on the main map for personalized predictions.

Höhenverlauf

Loading altitude history...

Zweizeiliger Elementsatz

1 60432U 24144H 26123.85106122 .00000388 00000-0 25231-4 0 9995
2 60432 53.1606 320.9821 0001039 104.4826 255.6290 15.30190309 97759
Epoch: 3. Mai 2026 • Age: 4 hours

Aktueller Status

Höhe 494.4 km
Geschwindigkeit 7.62 km/s
Subsatellitenpunkt -53.13°S, 9.22°W
Startdatum 12. Aug. 2024
Alter 1.7 years
Typ internet

Technische Details

Klassifizierung Payload
Masse 730.00 kg
Trockenmasse 700.00 kg
Gesamtmasse 730.00 kg
Länge 0.30 m
Durchmesser 4.10 m
Spannweite 29.00 m
Form Box + pan
Hersteller SPXS
Bus-Typ Starlink V2M
Phasenstatus In Orbit
Besitzer/Staat SPXS/US

Most Searched